Simultaneous Nadir Overpasses (SNOs) Predictions

Prediction of SNOs between GOES-15 and TERRA Satellite Orbit:

Table of predicted SNOs for the next 14.0 days since TLE Epoch: 7/23/2022
Index Date Time (GOES-15) GOES-15 Lat,Lon TERRA Lat,Lon Distance(km) Time Diff (sec)
1 07/24/2022 18:47:25 -0.01,-128.23 -0.07,-127.83 45.46 80
2 07/26/2022 18:35:08 -0.02,-128.18 -0.72,-124.87 376.70 80
3 07/27/2022 06:59:10 -0.02,-128.13 -0.43,-130.05 218.02 80
4 07/29/2022 06:44:12 -0.01,-128.08 0.17,-127.08 112.72 80
5 07/29/2022 19:08:06 0.05,-128.10 0.92,-132.24 470.51 80
6 07/31/2022 06:31:55 0.00,-128.02 0.84,-124.12 443.27 80
7 07/31/2022 18:55:48 0.04,-128.04 0.30,-129.27 139.86 80
8 08/02/2022 18:40:50 0.03,-127.98 -0.32,-126.30 190.48 80
9 08/03/2022 07:04:52 -0.07,-127.93 -0.82,-131.48 403.77 80
10 08/05/2022 06:52:34 -0.07,-127.86 -0.19,-128.51 74.10 80
